Date String (YYYY-MM-DD hh:mm:ss) UTC,Instrument flags,absolute air pressure of the measurement (hPa),sample flow rate (lpm),inlet stack bypass flow (lpm),air temperature of the measurement (°C),ambient temperature measured by the external sensor (°C),aerosol sample conditioner tube jacket temperature (°C),OPC LED temperature (°C),internal box temperature (°C),relative humidity of the measurement (%),span deviation,mass concentration of particles derived from Lorenz-Mie calculation of OPC scattering (μg/m³),mass concentration of particles derived from Lorenz-Mie calculation of OPC scattering (μg/m³),mass concentration of particles derived from Lorenz-Mie calculation of OPC scattering (μg/m³)
DateTimeUTC,F1_M11,P_M11,Q1_M11,Q2_M11,T1_M11,T2_M11,T3_M11,T4_M11,T5_M11,U1_M11,ZSPAN_M11,X0_M11,X2_M11,X1_M11
2024-06-18 14:00:00,SystemResetWarning,0823.6,5.00,000.00,027.4,026.6,000.0,036.2,029.3,015.6,0000.0,0042.67,0005.72,0001.92
2024-06-18 14:01:00,SystemResetWarning,0823.6,5.00,000.00,027.4,026.6,000.0,036.1,029.3,015.3,0000.0,0042.45,0005.71,0001.93
2024-06-18 14:02:00,SystemResetWarning,0823.6,5.00,000.00,027.4,026.6,000.0,036.1,029.3,015.4,0000.0,0044.14,0005.77,0001.98
2024-06-18 14:03:00,SystemResetWarning,0823.6,5.01,000.00,027.4,026.5,000.0,036.1,029.3,015.2,0000.0,0044.02,0005.84,0001.99
2024-06-18 14:04:00,SystemResetWarning,0823.5,5.00,000.00,027.4,026.5,000.0,036.1,029.2,014.9,0000.0,0041.75,0005.93,0002.01
2024-06-18 14:05:00,SystemResetWarning,0823.5,4.98,000.00,027.4,026.5,000.0,036.1,029.3,015.0,0000.0,0041.83,0005.95,0002.04
2024-06-18 14:06:00,SystemResetWarning,0823.5,5.01,000.00,027.4,026.5,000.0,036.1,029.2,015.4,0000.0,0044.33,0005.93,0002.07
2024-06-18 14:07:00,SystemResetWarning,0823.5,5.02,000.00,027.4,026.5,000.0,036.1,029.2,015.5,0000.0,0043.71,0005.92,0002.11
2024-06-18 14:08:00,SystemResetWarning,0823.5,5.00,000.00,027.4,026.5,000.0,036.1,029.3,015.7,0000.0,0044.99,0006.03,0002.13
2024-06-18 14:09:00,SystemResetWarning,0823.5,4.99,000.00,027.4,026.5,000.0,036.1,029.3,015.5,0000.0,0044.58,0006.01,0002.13
2024-06-18 14:10:00,SystemResetWarning,0823.5,4.99,000.00,027.4,026.5,000.0,036.1,029.3,015.4,0000.0,0043.56,0006.02,0002.13
2024-06-18 14:11:00,SystemResetWarning,0823.5,4.99,000.00,027.4,026.5,000.0,036.1,029.3,015.5,0000.0,0044.30,0006.02,0002.14
2024-06-18 14:12:00,SystemResetWarning,0823.5,5.01,000.00,027.4,026.6,000.0,036.1,029.3,015.3,0000.0,0045.38,0006.11,0002.16
2024-06-18 14:13:00,SystemResetWarning,0823.5,5.02,000.00,027.4,026.6,000.0,036.1,029.3,015.3,0000.0,0045.17,0006.13,0002.13
2024-06-18 14:14:00,SystemResetWarning,0823.5,5.00,000.00,027.4,026.6,000.0,036.1,029.3,015.2,0000.0,0044.89,0006.08,0002.11
2024-06-18 14:15:00,SystemResetWarning,0823.5,4.99,000.00,027.4,026.6,000.0,036.1,029.3,015.2,0000.0,0045.92,0006.06,0002.11
2024-06-18 14:16:00,SystemResetWarning,0823.5,5.00,000.00,027.4,026.6,000.0,036.1,029.3,015.3,0000.0,0045.16,0006.07,0002.10
2024-06-18 14:17:00,SystemResetWarning,0823.4,5.01,000.00,027.4,026.6,000.0,036.1,029.3,015.3,0000.0,0044.64,0006.04,0002.08
2024-06-18 14:18:00,SystemResetWarning,0823.5,5.00,000.00,027.4,026.6,000.0,036.1,029.3,015.4,0000.0,0042.30,0006.01,0002.07
2024-06-18 14:19:00,SystemResetWarning,0823.5,5.00,000.00,027.4,026.6,000.0,036.1,029.3,015.3,0000.0,0040.47,0005.94,0002.07
2024-06-18 14:20:00,SystemResetWarning,0823.5,4.99,000.00,027.4,026.6,000.0,036.1,029.3,015.5,0000.0,0041.97,0005.80,0002.06
2024-06-18 14:21:00,SystemResetWarning,0823.6,5.00,000.00,027.4,026.5,000.0,036.1,029.3,015.5,0000.0,0043.47,0005.76,0002.07
2024-06-18 14:22:00,SystemResetWarning,0823.6,5.01,000.00,027.4,026.5,000.0,036.1,029.3,015.7,0000.0,0042.41,0005.76,0002.08
2024-06-18 14:23:00,SystemResetWarning,0823.6,5.01,000.00,027.4,026.6,000.0,036.1,029.3,015.9,0000.0,0039.47,0005.68,0002.07
2024-06-18 14:24:00,SystemResetWarning,0823.6,4.99,000.00,027.4,026.6,000.0,036.1,029.3,015.7,0000.0,0037.68,0005.61,0002.08
2024-06-18 14:25:00,SystemResetWarning,0823.6,4.99,000.00,027.4,026.6,000.0,036.1,029.3,015.8,0000.0,0037.13,0005.69,0002.08
2024-06-18 14:26:00,SystemResetWarning,0823.7,5.00,000.00,027.4,026.6,000.0,036.1,029.3,015.8,0000.0,0038.64,0005.69,0002.08
2024-06-18 14:27:00,SystemResetWarning,0823.7,5.00,000.00,027.4,026.6,000.0,036.1,029.4,015.7,0000.0,0040.66,0005.72,0002.09
2024-06-18 14:28:00,SystemResetWarning,0823.7,5.01,000.00,027.4,026.6,000.0,036.1,029.3,015.3,0000.0,0040.07,0005.79,0002.11
2024-06-18 14:29:00,SystemResetWarning,0823.8,5.00,000.00,027.4,026.6,000.0,036.1,029.3,015.5,0000.0,0039.76,0005.81,0002.12
2024-06-18 14:30:00,SystemResetWarning,0823.7,5.00,000.00,027.4,026.6,000.0,036.1,029.3,015.2,0000.0,0042.18,0005.94,0002.13
2024-06-18 14:31:00,SystemResetWarning,0823.7,5.00,000.00,027.4,026.6,000.0,036.1,029.3,015.5,0000.0,0042.48,0006.02,0002.15
2024-06-18 14:32:00,SystemResetWarning,0823.7,5.00,000.00,027.4,026.6,000.0,036.1,029.3,015.7,0000.0,0042.69,0006.12,0002.19
2024-06-18 14:33:00,SystemResetWarning,0823.7,4.99,000.00,027.4,026.6,000.0,036.1,029.3,015.6,0000.0,0041.21,0006.05,0002.16
2024-06-18 14:34:00,SystemResetWarning,0823.7,5.00,000.00,027.4,026.6,000.0,036.1,029.3,015.7,0000.0,0041.08,0006.00,0002.14
2024-06-18 14:35:00,SystemResetWarning,0823.8,5.00,000.00,027.4,026.6,000.0,036.1,029.3,015.7,0000.0,0042.55,0006.03,0002.14
2024-06-18 14:36:00,SystemResetWarning,0823.8,5.01,000.00,027.4,026.6,000.0,036.1,029.3,015.7,0000.0,0043.36,0005.91,0002.13
2024-06-18 14:37:00,SystemResetWarning,0823.7,5.01,000.00,027.4,026.6,000.0,036.1,029.3,015.8,0000.0,0042.62,0005.93,0002.15
2024-06-18 14:38:00,SystemResetWarning,0823.8,5.00,000.00,027.4,026.6,000.0,036.1,029.3,015.8,0000.0,0041.68,0005.96,0002.16
2024-06-18 14:39:00,SystemResetWarning,0823.8,5.00,000.00,027.4,026.6,000.0,036.1,029.3,015.6,0000.0,0041.01,0006.01,0002.15
2024-06-18 14:40:00,SystemResetWarning,0823.7,4.99,000.00,027.4,026.6,000.0,036.1,029.3,015.7,0000.0,0041.66,0006.01,0002.15
2024-06-18 14:41:00,SystemResetWarning,0823.7,4.99,000.00,027.4,026.6,000.0,036.1,029.3,015.7,0000.0,0042.55,0006.02,0002.15
2024-06-18 14:42:00,SystemResetWarning,0823.7,5.01,000.00,027.4,026.6,000.0,036.1,029.3,015.9,0000.0,0041.44,0005.96,0002.15
2024-06-18 14:43:00,SystemResetWarning,0823.7,5.01,000.00,027.4,026.6,000.0,036.1,029.3,015.6,0000.0,0039.81,0005.91,0002.15
2024-06-18 14:44:00,SystemResetWarning,0823.7,5.00,000.00,027.4,026.5,000.0,036.1,029.2,015.6,0000.0,0039.27,0005.89,0002.17
2024-06-18 14:45:00,SystemResetWarning,0823.8,4.99,000.00,027.4,026.5,000.0,036.1,029.3,015.6,0000.0,0039.80,0005.91,0002.19
2024-06-18 14:46:00,SystemResetWarning,0823.8,5.00,000.00,027.4,026.5,000.0,036.1,029.3,015.7,0000.0,0040.29,0005.87,0002.18
2024-06-18 14:47:00,SystemResetWarning,0823.8,5.01,000.00,027.4,026.5,000.0,036.1,029.3,015.8,0000.0,0041.27,0005.96,0002.21
2024-06-18 14:48:00,SystemResetWarning,0823.8,5.01,000.00,027.3,026.5,000.0,036.0,029.2,015.9,0000.0,0041.82,0005.94,0002.21
2024-06-18 14:49:00,SystemResetWarning,0823.9,5.00,000.00,027.3,026.5,000.0,036.0,029.2,016.1,0000.0,0041.56,0005.97,0002.22
2024-06-18 14:50:00,SystemResetWarning,0823.8,5.00,000.00,027.3,026.5,000.0,036.0,029.2,016.0,0000.0,0041.82,0005.97,0002.24
2024-06-18 14:51:00,SystemResetWarning,0823.8,4.99,000.00,027.3,026.5,000.0,036.0,029.2,016.4,0000.0,0041.12,0005.95,0002.24
2024-06-18 14:52:00,SystemResetWarning,0823.8,4.99,000.00,027.3,026.5,000.0,036.0,029.2,016.3,0000.0,0040.87,0005.95,0002.22
2024-06-18 14:53:00,SystemResetWarning,0823.8,5.01,000.00,027.3,026.5,000.0,036.0,029.2,016.0,0000.0,0040.76,0005.94,0002.22
2024-06-18 14:54:00,SystemResetWarning,0823.8,5.00,000.00,027.3,026.5,000.0,036.0,029.3,015.8,0000.0,0041.21,0005.97,0002.22
2024-06-18 14:55:00,SystemResetWarning,0823.9,5.01,000.00,027.3,026.5,000.0,036.0,029.3,015.8,0000.0,0040.27,0006.02,0002.22
2024-06-18 14:56:00,SystemResetWarning,0823.9,5.00,000.00,027.3,026.5,000.0,036.0,029.3,016.0,0000.0,0040.51,0006.01,0002.23
2024-06-18 14:57:00,SystemResetWarning,0824.0,5.01,000.00,027.3,026.5,000.0,036.0,029.3,015.5,0000.0,0039.52,0006.01,0002.24
2024-06-18 14:58:00,SystemResetWarning,0824.0,4.99,000.00,027.3,026.5,000.0,036.0,029.3,015.8,0000.0,0038.50,0006.02,0002.25
2024-06-18 14:59:00,SystemResetWarning,0824.0,4.99,000.00,027.3,026.5,000.0,036.0,029.3,016.0,0000.0,0039.65,0006.10,0002.24
